Social login voor leden:
METAR EBOS 271620Z 26003KT 230V300 9999 FEW024 BKN046 17/12 Q1019 NOSIG
TAF TAF EBOS 271110Z 2712/2818 34004KT 9999 SCT012 BKN020 PROB30 TEMPO 2715/2718 SHRA PROB30 2803/2806 3500 BR

NZVC is de eerste Belgische vliegclub met een erkenning als 'Approved Training Organisation (ATO)'

Sinds 3 maart 2015 is de Noordzee Vliegclub Oostende erkend door de Europese Unie en de Belgian Civil Aviation Authority als Approved Training Organisation (ATO). Hierbij zijn we de eerste vliegclub in België die voldoet aan de nieuwste en strengste Europese normen inzake organisatie, kwaliteit en veiligheid bij de opleiding tot Privaat Piloot (PPL).

Opleiding Piloot
Luchtdopen
Visit Us
Agenda
Opleiding Piloot
Doopvluchten
Visit Us
Volgende activiteit
Noordzee Vliegclub - Nieuwpoortsesteenweg 947 8400 Oostende - Tel 059 30 81 50 - Dit e-mailadres wordt beveiligd tegen spambots. JavaScript dient ingeschakeld te zijn om het te bekijken. -

 - Copyright 2014 Alle rechten voorbehouden.